Terminal Aerodrome Forecast
Issued by NWS Charleston, WV

Current Version | Previous Version | Graphics & Text | Print | Product List | Glossary On
Versions: 1 2 3 4 5 6 7 8 9 10 11 12 13 14 15 16 17 18 19 20 21 22 23 24 25
000
FTUS41 KRLX 261914 AAA
TAFBKW
TAF AMD
KBKW 261914Z 2619/2718 24009KT P6SM VCTS SCT035CB
     FM262000 22009KT 3SM BR VCTS BKN035CB BKN100
      TEMPO 2620/2622 2SM SHRA OVC040
     FM262300 22009KT P6SM SCT035 BKN100
     FM270400 32005KT 5SM BR OVC003
     FM270600 32004KT 1 1/2SM BR BKN001
     FM271000 32004KT 3SM BR BKN010
     FM271300 31004KT 6SM BR SCT015
     FM271600 28006KT P6SM FEW250=

USA.gov is the U.S. government's official web portal to all federal, state and local government web resources and services.